EDT,Max TemperatureF,Mean TemperatureF,Min TemperatureF,Max Dew PointF,MeanDew PointF,Min DewpointF,Max Humidity, Mean Humidity, Min Humidity, Max Sea Level PressureIn, Mean Sea Level PressureIn, Min Sea Level PressureIn, Max VisibilityMiles, Mean VisibilityMiles, Min VisibilityMiles, Max Wind SpeedMPH, Mean Wind SpeedMPH, Max Gust SpeedMPH,PrecipitationIn, CloudCover, Events, WindDirDegrees
2012-10-1,62,60,57,63,60,57,100,99,88,29.96,29.93,29.90,10,5,2,7,1,,0.22,7,Rain,44
2012-10-2,73,66,60,72,65,61,100,97,83,30.00,29.91,29.87,10,7,0,6,2,,0.30,7,Fog-Rain,354
2012-10-3,84,74,64,72,66,63,100,85,51,30.21,30.11,29.99,10,7,0,7,0,,0.00,4,Fog-Rain,204
2012-10-4,80,68,55,66,62,55,100,82,42,30.26,30.22,30.19,10,9,2,8,1,,0.01,1,Rain,281
2012-10-5,80,64,48,61,55,48,100,78,32,30.24,30.15,30.04,10,7,1,6,0,,0.00,0,,215
2012-10-6,80,66,51,63,55,45,100,74,45,30.06,29.99,29.93,10,8,1,13,3,21,0.02,3,Rain,307
2012-10-7,55,50,42,52,48,43,100,89,77,30.20,30.10,30.04,10,8,0,9,2,,0.41,8,Fog-Rain,41
2012-10-8,48,45,42,46,44,43,100,91,82,30.28,30.22,30.18,10,9,3,8,2,,0.07,7,Rain,3
2012-10-9,62,54,46,55,49,45,100,87,63,30.21,30.16,30.10,10,10,5,7,3,,0.01,7,,15
2012-10-10,71,56,42,54,48,43,100,74,41,30.16,30.07,30.02,10,8,0,13,2,28,0.00,3,Fog,272
2012-10-11,69,54,39,46,41,32,100,73,26,30.25,30.23,30.17,10,10,10,6,1,,0.00,0,,181
2012-10-12,73,55,37,50,42,37,100,72,27,30.41,30.25,30.20,10,10,7,14,1,17,0.00,0,,323
2012-10-13,66,52,37,48,40,34,100,69,34,30.52,30.43,30.35,10,10,4,7,2,,0.00,0,,146
2012-10-14,73,56,39,59,50,39,100,78,50,30.35,30.20,30.04,10,10,7,10,2,21,0.00,2,,204
2012-10-15,75,66,55,64,56,37,100,75,33,30.04,29.88,29.75,10,10,4,13,3,20,0.37,4,Rain,243
2012-10-16,71,56,42,50,43,36,100,69,27,30.00,29.94,29.88,10,10,7,8,2,,0.00,0,,276
2012-10-17,73,56,39,50,45,39,100,75,33,30.03,29.96,29.92,10,10,5,9,1,,0.00,0,,195
2012-10-18,71,56,42,63,54,43,100,88,64,29.95,29.87,29.79,10,9,1,6,0,,0.00,5,,177
2012-10-19,73,60,46,61,47,34,100,70,23,29.80,29.76,29.70,10,7,0,8,1,,0.00,3,Fog,211
2012-10-20,69,55,41,46,41,37,100,71,31,30.01,29.86,29.77,10,10,10,12,2,16,0.00,0,,305
2012-10-21,69,51,33,48,39,34,100,74,28,30.19,30.12,30.01,10,10,7,13,1,17,0.00,0,,324
2012-10-22,78,56,35,54,44,36,100,74,30,30.27,30.20,30.15,10,9,5,6,0,,0.00,0,,135
2012-10-23,82,62,42,55,48,43,100,72,25,30.20,30.16,30.10,10,9,4,9,1,,0.00,0,,208
2012-10-24,84,66,48,55,51,45,100,73,25,30.22,30.16,30.11,10,9,4,7,0,,0.00,0,,125
2012-10-25,82,63,44,57,52,45,100,77,30,30.20,30.16,30.12,10,8,2,8,1,,0.00,0,,127
2012-10-26,66,58,50,61,56,50,100,89,73,30.19,30.11,30.04,10,7,1,8,2,,0.00,3,,9
2012-10-27,71,66,60,63,57,52,100,76,53,30.02,29.89,29.80,10,9,5,10,5,18,0.00,5,Rain,21
2012-10-28,68,60,53,52,46,37,77,62,46,29.81,29.72,29.66,10,10,10,20,9,28,0.00,4,,332
2012-10-29,51,46,42,37,34,30,76,62,50,29.68,29.55,29.30,10,10,10,24,16,34,0.00,7,Rain,312
2012-10-30,48,46,44,30,28,25,57,49,43,29.59,29.42,29.27,10,10,10,15,9,33,0.00,7,,270
2012-10-31,53,47,41,34,32,30,76,56,41,29.78,29.68,29.59,10,10,10,10,4,20,0.00,6,,262